Flag for Netherlands Weather past 2 weeks in Emmen, Netherlands

Now
49 °F

Cool.


Feels Like: 49 °F
Forecast: 50 / 61 °F
Wind: 2 mph from Southwest

Location: Meppen

Current Time: Aug 23, 2014 at 2:23:11 AM

Latest Report: Aug 23, 2014 at 1:00 AM


Visibility: 3 mi

Pressure: 29.86 "Hg

Humidity: 94%

Dew point: 47 °F

Location of EmmenLocation

Historic Weather in Emmen — Graph

°F

Emmen temperature yesterday

Maximum temperature yesterday: 65 °F (at 2:00 PM)
Minimum temperature yesterday: 51 °F (at 12:00 AM)
Average temperature yesterday: 56 °F

Past Weeks' High & Low Weather Summary

 TemperatureHumidityPressure
High77 °F (Aug 10, 3:00 PM)95% (Aug 8, 6:00 AM)30.04 "Hg (Aug 8, 6:00 AM)
Low46 °F (Aug 21, 7:00 AM)41% (Aug 13, 4:00 PM)29.53 "Hg (Aug 10, 9:00 PM)
Average59 °F77%29.81 "Hg
* Reported Midnight between Aug 7 and Aug 8 — Midnight between Aug 22 and Aug 23, Emmen, Weather by CustomWeather, © 2014

Note: Actual official high and low records may vary slightly from our data, if they occured in-between our weather recording intervals... More about our weather records

Advertising

Emmen weather history for previous 24 hours

 ConditionsComfort  
Time TempWeatherWind HumidityBarometerVisibility
12:00 AM
Aug 23
49 °FCool.2 mph93%29.85 "Hg4 mi
10:00 PM
Aug 22
51 °FCool.2 mph90%29.85 "Hg5 mi
9:00 PM53 °FCool.3 mph90%29.84 "Hg6 mi
7:00 PM54 °FCool.2 mph91%29.83 "Hg5 mi
6:00 PM54 °FCool.5 mph88%29.83 "Hg4 mi
4:00 PM63 °FMild.6 mph57%29.80 "Hg6 mi
3:00 PM64 °FMild.6 mph53%29.80 "Hg6 mi
2:00 PM65 °FMild.6 mph52%29.81 "Hg6 mi
1:00 PM62 °FRefreshingly cool.5 mph58%29.82 "Hg6 mi
12:00 PM62 °FOvercast.6 mph57%29.83 "Hg25 mi
10:00 AM59 °FPartly sunny.3 mph69%29.84 "Hg25 mi
9:00 AM55 °FOvercast.3 mph77%29.84 "Hg22 mi
7:00 AM53 °FOvercast.3 mph80%29.85 "Hg19 mi
6:00 AM53 °FCool.3 mph79%29.86 "Hg6 mi
4:00 AM54 °FCool.3 mph80%29.88 "Hg6 mi
3:00 AM54 °FCool.2 mph81%29.89 "Hg5 mi
2:00 AM53 °FCool.2 mph83%29.90 "Hg5 mi
Weather by CustomWeather, © 2014

See weather overviewHow to use our weather pages